Wind_Speed
0 0 1 1 2 1 2 4 2 3 2 1 3 1 4 5 2 3 5 3 1 3 3 2 2 3 3 3 7 6 5 7 6 5 4 4 4 20 30 21 18 27 31 29 28 26 25 23 20 20 18 18 18 17 16 16 15 15 15 14 14 14 14 13 13 13 11 11 11 10 10 10 9 9 9 8 8 8 9 9 8 8 8 7 6 6 5 6 6 6 5 4 3 3 4 4 4
1 1 2 2 2 1 1 3 2 3 4 3 4 3 5 3 1 6 8 6 5 4 1 3 3 2 3 2 3 2 3 4 5 4 3 2 7 21 28 19 21 28 31 29 28 27 26 25 23 20 19 19 19 18 17 18 17 16 16 15 15 14 14 13 13 12 11 11 10 10 10 9 9 8 8 7 7 8 8 8 8 8 7 7 6 6 6 7 6 5 3 2 1 1 2 2 2
0 0 2 1 1 3 1 3 1 1 2 3 5 4 3 2 6 9 9 8 7 4 3 1 1 1 4 3 0 2 4 3 3 3 2 7 8 19 29 20 23 28 29 29 27 27 25 26 25 22 19 19 19 17 17 17 18 18 17 16 16 14 14 13 13 13 12 11 10 10 9 9 8 7 6 6 6 7 7 7 8 8 7 7 6 6 6 5 4 3 2 2 2 1 1 1 0
0 0 2 1 1 3 4 3 2 3 1 3 4 6 3 4 8 8 8 8 6 3 3 0 1 1 4 2 3 1 5 4 4 6 2 12 12 19 31 22 24 27 27 29 27 27 24 25 25 23 22 21 20 19 19 18 17 17 17 17 16 15 14 14 14 13 12 11 11 10 10 9 8 7 6 6 6 7 7 7 7 7 7 7 7 6 4 4 3 3 3 2 1 1 2 2 3
1 0 2 1 2 1 3 2 2 3 4 4 2 6 5 7 7 7 6 6 4 1 1 1 2 2 1 4 3 1 5 3 4 10 5 14 16 20 31 25 24 27 26 27 25 26 24 24 24 23 23 22 22 21 20 20 18 17 17 16 16 16 15 15 14 13 12 12 11 10 10 9 8 7 7 7 6 7 8 8 8 7 7 7 8 5 3 3 4 4 4 3 3 4 4 5 5
1 1 3 4 2 1 3 1 2 3 6 5 3 7 7 7 7 7 6 6 4 4 4 2 2 1 2 3 2 4 5 2 3 12 8 11 18 22 30 27 26 27 26 25 24 24 23 23 23 23 23 22 23 21 20 20 19 18 18 16 16 16 15 15 14 13 13 12 12 11 11 10 9 8 8 8 7 8 8 9 9 9 8 8 7 5 5 3 4 5 4 4 5 5 5 5 5
0 2 3 4 2 2 3 3 4 4 5 6 5 7 9 8 4 4 4 3 2 4 4 3 1 1 4 2 2 5 6 5 3 8 9 11 19 23 29 29 28 28 25 24 24 23 23 23 23 22 20 21 23 22 21 20 20 20 19 17 17 17 16 16 15 14 14 14 13 12 12 11 10 10 10 10 9 9 9 9 9 9 9 9 8 6 5 4 4 4 4 4 4 4 4 4 4
2 1 1 3 1 2 3 3 4 4 4 5 5 7 9 7 3 4 4 2 2 3 2 3 1 1 5 2 2 5 6 10 3 5 10 12 20 25 30 31 30 28 26 25 24 23 24 24 24 23 20 21 23 23 23 21 21 22 20 18 18 17 17 17 15 16 16 16 15 14 13 12 11 11 12 11 10 9 9 8 8 9 9 9 9 8 6 5 4 3 3 3 3 3 2 2 2
4 2 0 2 2 1 0 2 4 4 6 6 6 8 9 5 4 5 5 4 3 2 4 4 4 3 5 3 4 4 4 12 8 6 10 16 23 26 30 32 31 30 27 26 25 24 25 24 25 24 22 23 23 23 21 18 21 22 19 18 18 18 18 17 15 15 17 16 15 15 14 13 12 12 12 10 9 8 8 8 8 9 9 10 9 8 7 5 4 4 4 3 4 3 3 2 2
3 3 2 1 2 2 3 3 3 4 6 6 7 10 9 4 6 5 5 5 4 1 5 3 3 4 3 2 6 3 3 11 12 10 11 19 25 27 30 31 31 30 29 28 26 25 25 25 26 25 25 24 24 24 20 20 24 22 19 20 21 19 18 16 15 16 17 16 14 14 13 13 13 12 11 9 9 8 8 8 9 9 9 10 9 8 7 6 6 6 6 5 5 4 4 4 3
2 4 2 2 1 2 4 4 4 5 6 5 7 10 9 5 5 3 3 5 4 3 4 2 2 4 1 4 5 3 3 9 14 13 14 23 27 28 30 30 30 29 29 28 27 26 25 26 26 26 26 25 25 24 20 20 21 21 20 21 21 19 18 16 17 18 17 16 15 15 14 13 12 11 10 10 10 9 10 10 10 10 10 10 9 8 8 7 7 6 6 5 5 5 4 4 5
2 3 3 2 2 3 4 4 5 6 7 4 6 7 2 7 6 4 5 5 3 2 5 4 3 3 2 5 4 3 4 10 15 13 17 25 28 29 30 30 30 28 28 27 27 26 26 26 26 26 25 24 25 23 19 19 19 19 19 20 19 18 18 17 19 19 17 16 16 15 14 14 12 12 11 11 11 11 11 11 11 10 10 10 9 8 8 7 6 5 5 5 5 4 4 4 5
3 2 4 2 3 2 2 2 5 5 7 4 5 4 3 7 5 7 6 4 3 1 7 8 3 2 3 5 4 5 5 12 15 15 21 27 29 29 29 29 28 28 27 27 27 26 27 27 26 26 25 25 25 23 20 21 21 19 19 19 19 19 19 19 19 19 17 16 16 15 15 14 14 13 13 13 13 13 13 12 12 11 11 10 9 9 8 7 6 5 4 4 4 4 4 4 4
2 3 4 1 1 1 2 2 5 3 5 6 4 2 2 3 4 5 6 4 7 5 5 6 6 1 3 3 5 5 4 12 17 18 24 27 29 28 27 28 28 28 28 27 27 27 28 28 27 27 26 25 25 24 23 23 23 21 21 22 21 21 21 20 19 18 18 17 17 16 16 15 15 15 15 15 15 15 15 14 13 12 11 11 10 9 8 7 6 5 4 4 3 3 2 2 2
2 2 4 1 2 2 3 3 3 3 4 6 3 1 2 4 2 3 5 7 8 5 1 1 6 2 3 3 4 5 5 12 20 21 26 27 27 26 26 27 27 28 28 28 28 28 29 29 29 28 27 27 26 26 26 25 25 24 24 24 23 21 21 20 19 19 18 18 18 17 17 17 17 17 17 16 16 16 15 15 14 13 12 11 10 9 8 7 6 5 4 4 3 3 2 2 1
3 3 4 1 2 2 3 4 2 2 5 6 4 1 1 7 2 1 5 5 5 3 1 3 5 2 4 6 6 6 5 15 22 22 26 25 24 23 23 25 26 28 28 29 29 29 29 30 30 30 29 28 28 28 27 27 26 25 24 23 22 21 20 20 19 20 19 19 18 17 17 17 17 17 17 17 16 15 15 15 15 14 13 12 11 10 9 8 7 6 5 5 4 4 3 3 3
3 3 3 2 2 2 4 4 3 3 6 6 5 1 2 7 3 2 2 2 4 3 2 5 3 2 5 5 5 5 5 20 22 23 24 22 22 21 21 24 26 28 30 31 31 31 31 31 31 31 31 30 30 29 28 27 27 26 25 23 22 21 21 20 21 21 20 20 19 17 17 17 17 17 18 17 17 16 16 15 15 14 13 12 12 11 10 9 8 6 6 5 4 4 4 3 3
2 3 2 3 3 4 6 7 6 3 4 5 4 1 5 6 5 1 2 2 5 4 5 5 6 6 5 4 5 1 13 22 23 25 23 21 21 20 22 25 28 31 32 33 33 33 33 33 33 32 32 32 31 30 29 28 27 27 25 24 22 22 22 22 22 22 21 20 19 18 18 18 18 18 18 18 17 17 16 16 15 14 13 13 13 12 11 10 9 7 6 5 5 4 3 3 3
2 3 2 4 6 6 6 7 5 4 4 5 6 2 5 7 4 1 3 7 6 6 7 4 7 11 8 4 2 8 18 22 24 25 23 23 24 23 24 26 29 32 34 37 38 37 36 35 34 34 33 33 33 32 30 29 28 27 26 24 23 23 23 23 23 22 22 20 20 20 20 20 19 19 19 19 18 18 17 16 16 15 14 13 13 12 11 10 8 7 6 5 5 4 4 3 3
2 3 3 6 7 6 6 7 8 7 4 5 8 2 3 6 4 1 3 8 9 10 8 4 8 12 12 5 6 12 18 21 24 24 24 25 27 27 26 27 31 36 40 41 40 39 38 37 36 36 35 35 35 33 32 30 30 28 27 25 24 24 23 23 23 22 22 21 21 21 21 21 20 20 20 20 19 19 18 17 16 16 15 14 13 11 10 9 8 7 6 5 5 4 4 3 3
2 4 6 7 5 4 8 9 9 8 3 4 5 3 4 6 3 3 3 5 12 12 9 10 12 13 13 6 8 13 16 17 21 23 23 24 26 28 29 32 35 37 37 36 38 41 41 40 39 38 37 36 36 35 34 32 31 30 28 26 26 25 24 24 24 24 24 24 23 23 23 22 22 22 21 21 20 19 19 18 18 17 16 15 13 11 10 9 8 7 6 6 5 4 4 4 4
2 5 8 7 4 4 9 6 7 6 3 3 3 4 6 3 2 5 6 5 13 12 6 12 14 12 12 7 9 11 12 14 17 20 21 23 26 28 30 31 31 30 31 35 40 42 43 42 41 39 39 38 38 37 35 34 33 31 30 28 27 27 26 25 26 26 26 26 25 25 25 25 24 24 23 23 22 21 21 20 20 18 16 14 13 12 11 10 9 8 7 6 5 4 4 3 3
3 6 6 7 7 7 7 3 5 3 2 4 3 5 3 3 7 5 9 11 18 16 4 9 11 10 9 6 9 10 12 13 15 21 25 26 28 31 32 32 32 31 33 38 40 40 42 43 42 41 41 41 40 38 37 35 35 33 31 30 29 29 28 28 28 28 28 27 27 27 27 27 26 26 25 24 24 23 23 22 20 18 16 14 13 12 11 10 9 8 7 6 5 4 3 3 3
5 6 5 7 8 10 10 6 5 3 6 8 2 5 5 8 8 1 7 14 21 19 4 6 9 7 6 6 10 13 14 15 19 27 32 32 34 37 36 34 34 32 32 35 36 38 42 44 44 43 43 43 42 41 39 38 37 34 33 32 31 30 30 30 30 30 29 29 28 28 28 28 28 28 27 26 26 25 24 22 20 18 16 14 13 12 11 10 8 7 6 5 5 4 3 3 2
6 8 6 4 5 9 10 8 7 6 8 6 2 8 11 11 4 4 13 18 20 17 9 8 8 6 7 8 11 12 13 15 19 25 29 32 34 33 33 32 29 29 33 36 36 38 41 44 45 45 45 45 44 43 41 40 39 36 35 34 33 32 32 31 31 30 30 30 30 30 30 30 30 29 29 28 27 26 25 22 20 18 17 15 13 12 11 9 8 6 5 4 4 3 2 2 2
7 9 6 4 6 8 8 7 7 7 6 4 3 12 15 7 1 9 18 20 19 12 9 9 7 8 9 9 10 11 12 14 17 22 27 30 29 28 32 31 29 34 38 36 37 40 40 42 45 47 47 46 46 45 44 42 41 39 38 37 35 34 33 32 32 32 31 31 31 31 32 32 31 30 30 29 28 27 25 23 21 18 17 15 13 12 10 9 7 6 4 3 3 3 2 2 2
5 5 6 7 9 9 6 6 6 5 5 7 7 14 15 4 1 9 16 13 9 8 9 7 5 10 10 9 10 10 11 16 20 21 20 22 24 29 33 30 34 40 36 35 40 40 39 41 44 47 47 46 46 46 46 45 43 42 40 38 37 36 35 34 34 34 33 33 33 33 34 33 32 31 30 30 29 27 25 23 21 19 17 15 13 12 10 9 7 5 4 3 2 3 2 2 2
2 2 8 9 7 10 9 6 6 4 5 9 11 12 12 4 2 13 19 10 2 6 11 9 6 10 10 9 9 8 10 18 21 17 15 20 26 32 33 34 40 41 37 41 43 39 39 42 43 45 47 47 46 47 47 46 45 43 42 40 39 38 36 36 36 36 36 35 35 35 35 35 33 31 30 30 28 27 25 24 21 19 17 15 14 12 10 9 7 5 4 3 2 2 2 2 2
2 2 6 12 7 11 14 6 5 7 4 7 9 5 8 6 10 18 20 11 4 7 12 12 10 10 10 9 9 8 11 16 15 16 23 29 32 34 35 41 44 40 42 44 39 38 42 43 43 44 46 47 48 49 48 48 47 45 43 42 41 39 38 38 38 37 37 37 36 36 36 35 33 30 30 29 28 26 25 24 22 19 17 16 14 12 10 8 6 5 4 3 2 2 2 1 1
4 2 2 9 8 10 9 2 2 5 5 6 8 3 7 11 17 18 14 9 7 8 11 13 11 9 9 9 8 9 11 12 13 21 31 33 34 34 37 43 41 40 41 37 36 41 44 43 43 43 45 47 48 48 48 48 47 46 45 43 42 41 40 40 39 38 38 38 37 37 35 33 32 31 30 30 28 27 26 24 22 20 18 16 14 12 10 8 7 5 4 3 2 2 1 0 1
3 2 1 3 3 9 7 5 2 3 4 7 7 5 9 13 19 16 9 7 8 10 13 12 11 11 9 8 8 10 11 12 18 27 31 33 36 36 38 41 39 39 37 35 41 44 43 43 43 43 45 47 48 48 49 48 48 47 45 44 43 42 41 40 39 39 39 38 37 36 34 33 33 32 31 30 29 27 26 24 22 20 19 17 15 13 11 9 8 6 5 4 2 2 1 1 2
2 2 4 2 2 8 12 5 5 8 4 4 6 6 8 13 17 14 6 5 8 10 13 12 12 12 11 9 8 10 12 12 18 26 29 33 39 38 39 41 39 39 39 41 43 41 40 42 43 44 45 47 48 49 49 48 47 46 45 44 43 43 42 41 40 40 39 38 37 36 35 34 34 33 32 31 30 28 27 25 23 21 19 17 15 13 12 10 8 7 6 4 3 2 1 2 3
2 1 5 5 4 5 9 10 6 8 3 2 7 7 6 9 13 12 5 5 8 9 12 13 13 13 11 10 8 10 11 11 14 20 27 34 39 40 40 41 41 40 41 42 40 39 40 42 43 44 46 48 49 48 47 46 46 45 45 44 43 43 42 41 40 40 39 38 37 37 36 36 36 34 33 32 30 29 28 25 23 22 20 18 16 14 13 11 9 8 6 5 4 2 2 3 4
3 2 5 5 7 6 5 8 6 2 5 6 8 9 10 12 12 12 8 6 7 8 12 13 13 12 11 9 10 12 12 13 15 16 25 34 38 39 39 41 40 39 39 39 39 40 41 41 43 44 45 46 46 46 45 44 44 43 42 42 42 42 42 41 40 40 39 38 37 37 37 37 37 35 34 32 31 30 28 26 24 22 20 18 17 15 14 12 10 9 7 6 5 3 2 3 4
7 6 5 4 6 7 7 9 6 4 6 7 4 9 15 15 13 14 14 11 9 11 13 14 13 13 12 11 13 15 14 16 19 19 24 32 35 35 36 38 37 36 36 36 37 39 39 39 41 42 42 42 43 43 42 41 40 40 39 38 39 40 40 40 40 40 39 38 38 38 38 38 38 36 34 33 32 31 29 27 25 23 22 20 18 17 15 13 11 10 8 7 5 2 1 3 5
12 8 6 6 6 8 9 10 8 6 10 9 8 15 17 15 13 14 16 13 13 16 14 13 14 13 13 13 14 16 16 17 21 24 23 26 32 33 33 33 34 35 36 35 36 37 38 39 39 41 42 42 41 40 39 39 38 37 36 36 37 39 40 40 40 40 39 39 39 39 38 38 38 37 35 35 33 32 30 28 26 24 23 21 20 18 16 14 12 10 8 6 4 2 1 3 5
7 4 6 8 8 10 10 11 12 6 6 10 12 18 18 15 14 14 15 13 13 18 18 15 14 14 15 15 18 17 17 18 21 25 23 23 27 28 27 29 30 32 34 35 36 39 41 41 42 43 43 42 43 43 43 43 42 39 38 39 41 41 42 42 42 42 41 41 40 39 39 39 39 38 37 36 34 33 30 29 28 26 24 22 20 17 16 15 13 11 8 7 4 2 1 2 5
6 6 7 8 8 13 11 12 15 5 4 9 10 17 20 16 15 12 12 13 14 18 20 20 17 16 15 16 20 19 16 16 17 21 21 18 21 22 22 25 27 30 34 36 38 40 42 42 43 43 42 43 46 47 47 47 47 46 44 45 46 44 45 45 45 45 44 42 41 40 39 39 39 39 38 37 35 34 32 30 29 27 26 23 20 18 17 16 14 12 9 8 6 4 3 1 3
7 5 6 8 6 9 11 12 14 6 4 8 9 16 18 14 16 13 12 15 15 16 19 21 19 16 16 17 19 19 17 17 16 18 18 13 15 20 21 24 29 32 34 36 38 39 40 41 42 42 43 45 48 48 48 48 47 46 43 42 43 41 42 44 44 43 43 41 40 40 39 39 39 39 38 37 36 35 32 31 30 28 27 24 23 21 20 18 15 13 10 9 8 7 5 3 2
6 6 6 8 4 6 9 7 8 5 4 7 9 15 14 11 15 13 14 18 15 14 18 20 18 17 20 20 17 16 17 18 19 19 17 10 11 16 19 23 27 29 30 33 36 38 39 42 44 44 44 46 47 47 47 45 41 39 36 33 35 34 34 36 36 36 39 39 39 40 40 40 40 39 38 37 36 35 33 32 30 29 27 25 24 23 21 19 16 14 12 10 9 9 7 4 3
9 9 7 10 10 11 12 6 5 6 5 7 10 15 12 9 12 10 9 12 12 13 16 17 18 20 20 17 14 15 16 19 19 18 19 12 8 12 17 21 24 27 30 34 37 40 41 43 44 44 44 44 45 45 44 40 37 36 32 27 27 26 25 28 30 31 34 38 40 42 42 41 40 39 38 37 37 35 34 33 31 30 28 26 25 23 21 18 16 14 12 11 9 8 7 5 6
10 8 11 16 17 13 13 9 7 6 5 5 3 8 10 4 8 8 6 6 9 9 12 17 20 19 14 11 13 16 16 16 15 16 19 15 7 8 13 18 21 25 30 35 37 40 40 40 41 41 41 42 43 43 43 41 40 40 37 33 30 28 25 28 34 36 38 42 43 43 42 41 40 39 38 37 37 36 34 33 31 30 29 27 26 23 21 19 17 15 13 12 10 8 8 7 8
9 6 12 16 14 11 12 9 4 2 5 4 3 1 10 4 5 7 7 8 10 10 12 17 17 13 11 11 14 14 13 12 11 13 17 15 8 7 10 16 21 26 32 34 34 36 37 37 38 40 41 41 42 43 44 43 42 42 42 41 39 37 34 35 40 42 43 44 43 42 42 41 41 40 39 38 38 37 36 34 32 31 29 28 27 24 23 20 18 16 14 13 11 9 8 8 10
7 5 9 11 9 9 8 5 4 4 4 4 2 4 8 11 4 8 10 10 12 13 14 14 13 13 15 15 14 12 12 11 10 12 16 14 7 7 10 16 24 29 31 30 30 32 34 35 37 39 40 40 41 43 45 45 44 44 43 41 39 40 39 38 40 40 40 41 40 40 40 41 41 40 39 39 39 38 37 35 33 32 31 29 28 26 24 22 20 18 16 15 14 12 10 9 10
6 2 5 6 6 5 4 4 5 1 4 5 4 5 3 12 8 4 5 7 10 13 13 13 13 14 15 14 12 13 12 12 12 12 15 13 6 8 14 19 24 28 27 26 28 31 32 33 35 37 38 39 41 44 46 47 46 45 44 42 39 38 37 34 34 35 35 36 38 38 38 39 40 40 39 39 39 39 38 36 35 34 32 30 29 27 25 23 22 20 19 17 15 13 12 10 9
4 4 4 3 3 2 3 3 3 2 5 6 5 5 2 11 9 1 1 3 7 10 9 10 12 12 13 12 12 13 11 11 11 9 10 10 8 11 15 18 20 21 22 23 25 28 30 32 34 37 39 39 41 44 46 47 45 44 44 42 39 36 33 29 28 30 31 33 35 36 37 38 39 39 40 39 39 39 38 37 36 35 33 32 30 28 26 25 23 21 19 17 15 14 13 12 10
1 2 2 5 4 4 3 0 2 2 7 6 9 11 6 7 6 3 3 4 6 7 5 7 9 10 13 12 11 12 10 10 10 8 8 8 9 11 12 13 14 15 18 21 24 27 30 33 35 37 38 38 40 43 45 46 46 45 45 44 41 38 35 32 30 31 31 32 34 35 36 37 38 39 40 40 39 39 39 39 37 35 34 33 31 30 28 26 24 23 21 19 17 15 14 13 12
0 1 2 4 5 4 5 4 3 2 9 6 10 13 8 7 7 1 4 7 5 6 5 8 11 11 12 11 10 10 8 7 8 9 9 8 8 8 7 9 11 12 17 21 24 27 30 32 34 35 35 37 39 41 44 46 45 45 44 43 42 40 39 38 37 36 36 36 36 36 36 37 38 39 40 42 42 41 40 39 38 36 35 34 33 31 29 27 25 24 23 21 19 17 16 15 14
3 2 1 2 4 4 3 3 1 4 8 5 7 8 5 11 9 3 8 13 11 9 8 8 12 12 11 11 11 10 8 7 7 8 8 7 7 6 5 6 8 11 15 18 22 25 28 30 32 34 34 36 38 40 42 44 44 43 42 41 41 39 39 40 39 38 39 39 39 38 39 39 40 41 42 44 45 43 42 41 40 39 38 36 34 32 29 28 26 25 24 23 21 20 18 16 15
5 5 4 3 1 3 4 3 2 5 7 3 3 5 4 10 8 5 11 14 12 8 6 8 9 9 10 11 11 11 11 9 8 8 8 6 7 6 5 6 6 8 11 14 18 22 25 27 30 32 32 34 37 39 40 41 42 42 41 40 40 39 38 39 38 38 39 39 40 40 42 42 43 44 45 46 46 45 44 44 43 41 40 37 35 33 31 29 27 26 26 24 22 21 19 17 16
6 6 5 4 4 4 5 4 5 8 6 3 1 4 5 6 5 6 9 8 8 6 6 7 6 7 9 9 9 9 10 9 7 7 7 6 6 6 6 6 7 8 10 13 17 21 23 25 28 30 31 33 36 38 39 41 41 40 40 40 39 39 39 39 39 40 40 40 41 41 42 43 44 45 45 45 45 46 46 45 44 43 41 39 37 34 32 31 29 28 27 25 23 22 20 19 18
3 4 5 2 5 5 5 6 8 7 4 3 3 4 6 5 6 8 7 7 8 6 5 6 6 7 6 5 6 6 8 8 7 7 7 7 6 5 6 7 8 9 11 14 17 20 23 24 27 29 30 33 36 38 40 41 40 40 40 41 40 39 39 39 40 41 41 42 42 42 43 43 44 43 42 43 43 45 46 46 45 44 42 40 38 36 34 33 31 30 29 27 25 24 22 21 20
0 3 3 4 3 6 4 7 6 5 5 6 6 7 6 4 8 9 5 6 6 4 4 4 6 7 4 4 6 6 7 7 6 6 7 7 6 5 5 7 8 10 11 15 18 21 24 26 28 29 30 32 35 37 38 39 39 40 41 42 41 41 42 43 43 43 42 41 41 42 42 42 42 42 41 42 42 43 45 46 46 45 43 42 40 38 36 34 33 32 31 30 28 26 24 23 21
3 2 5 2 1 3 3 3 3 5 8 7 8 13 11 6 8 7 5 6 7 4 4 6 7 6 5 6 6 6 6 6 5 5 6 6 6 5 5 7 9 10 11 14 17 20 24 27 29 31 32 34 37 38 39 39 40 41 42 43 44 44 45 46 45 44 42 41 41 42 42 41 42 41 41 41 41 42 43 45 46 45 44 43 42 40 38 36 35 34 33 31 29 27 26 24 22
4 4 2 1 2 4 2 2 3 6 9 6 7 13 10 7 9 10 9 10 12 9 6 6 8 8 6 7 8 7 7 7 6 6 6 5 5 5 6 8 9 12 14 15 16 19 22 26 28 32 34 35 36 37 38 40 41 43 43 44 45 45 45 46 44 42 41 42 43 43 42 42 41 41 40 40 41 42 42 44 45 45 44 43 42 41 39 38 37 36 34 32 31 29 27 26 24
1 3 2 1 4 5 4 3 2 5 9 8 8 10 7 7 9 12 14 12 11 11 6 7 10 8 6 6 7 8 7 7 7 7 7 6 6 5 6 9 12 14 16 17 18 20 23 25 27 30 33 32 33 35 37 39 41 43 42 41 42 44 45 44 42 40 40 42 43 42 42 42 41 40 40 40 41 42 43 43 44 44 45 44 43 42 40 39 38 37 36 34 33 31 29 28 26
2 2 4 4 3 3 4 3 2 4 8 8 9 8 7 5 6 13 16 10 8 9 5 7 11 9 8 6 5 6 6 6 7 6 7 7 7 6 6 9 12 13 16 18 20 22 24 26 29 31 31 32 33 35 38 41 42 43 42 42 43 45 45 43 41 40 41 41 41 41 41 41 40 40 40 40 41 42 43 43 43 44 45 45 45 44 42 41 40 38 37 36 34 33 31 29 27
5 5 5 5 5 3 6 7 6 5 7 7 9 9 7 4 6 15 15 7 6 7 6 10 12 10 9 7 6 6 6 6 8 7 7 7 6 6 6 7 10 13 16 18 20 22 25 27 30 31 31 34 37 39 41 44 43 42 44 45 45 45 44 43 42 42 42 42 42 42 41 40 40 40 41 41 42 42 42 43 43 43 44 45 45 45 44 43 42 41 39 37 36 34 32 30 29
Wind_Direction
144 94 302 294 329 343 3 57 70 321 76 282 271 220 261 230 235 272 264 269 255 244 209 130 154 154 120 164 188 191 175 172 171 150 212 246 159 170 171 179 185 177 176 177 179 181 181 178 175 175 177 178 177 174 170 169 168 169 169 171 171 171 171 170 169 166 165 162 160 157 155 152 150 148 147 148 144 139 131 125 127 128 123 118 121 125 128 129 132 138 128 126 123 119 122 110 109
73 327 322 284 340 15 248 68 94 331 40 312 280 182 259 293 286 237 227 214 206 259 326 112 126 111 84 85 148 156 211 207 184 169 244 164 149 175 173 179 181 178 179 179 182 184 184 183 180 177 177 179 179 174 170 167 166 166 166 166 167 168 168 168 168 165 164 163 160 156 155 153 154 153 149 154 141 125 122 119 120 124 125 119 117 122 121 121 132 150 142 124 126 118 111 102 107
70 243 327 240 352 40 83 40 103 48 41 276 279 233 268 295 235 236 229 219 228 286 348 138 168 130 92 28 150 160 239 251 185 185 290 168 171 183 178 178 181 181 183 183 185 187 186 186 186 183 178 179 178 174 172 171 170 170 170 169 168 168 166 167 171 170 165 164 162 157 159 161 163 154 147 155 136 121 122 122 120 125 132 124 125 140 135 135 153 161 171 165 159 169 98 55 348
23 197 343 185 102 27 69 35 146 130 225 241 272 260 240 221 238 253 250 245 256 328 2 203 264 211 129 224 221 170 246 263 203 179 181 192 192 183 180 179 182 185 186 186 187 188 189 188 189 188 186 185 181 181 180 178 177 176 177 177 175 176 174 174 179 176 168 167 166 161 166 170 162 153 158 154 143 153 159 156 147 131 124 132 151 166 160 182 210 208 215 221 227 249 269 283 287
299 327 356 91 118 22 96 68 118 127 222 196 225 266 236 218 244 260 260 277 276 247 240 182 257 260 164 224 197 185 227 249 217 191 184 199 195 181 181 181 183 188 189 189 189 190 191 191 192 192 193 191 188 188 186 184 184 181 182 181 180 181 180 179 179 175 171 173 171 168 174 174 169 168 165 156 162 184 185 181 177 161 150 160 169 157 136 180 218 231 242 254 268 274 275 278 278
263 162 23 59 97 96 118 167 182 209 229 174 198 264 252 230 238 249 274 305 290 228 207 198 243 249 253 258 204 210 208 137 158 193 198 198 194 184 181 183 186 189 190 190 192 193 194 194 194 194 195 194 193 192 188 187 186 185 184 181 181 180 180 181 180 180 178 179 177 175 175 177 178 168 164 178 195 198 193 189 187 184 180 181 175 148 126 163 216 233 248 258 263 268 269 272 273
198 179 16 65 66 32 122 200 207 232 240 178 196 252 263 256 219 224 281 315 292 248 198 200 207 117 247 279 267 242 214 194 136 190 202 194 192 185 182 184 187 189 191 193 193 194 194 194 194 193 192 193 193 193 192 188 187 187 185 181 182 182 180 180 180 180 178 176 173 171 172 173 167 162 180 200 203 198 197 193 191 191 190 191 189 184 181 205 226 233 239 243 250 256 260 265 269
78 148 11 100 126 10 118 231 232 215 246 217 222 239 257 264 170 179 226 201 225 250 218 230 141 146 265 345 263 253 219 218 219 203 198 194 192 183 184 186 187 189 191 194 194 194 194 194 193 192 190 192 193 194 193 187 188 188 185 183 182 181 178 176 173 172 175 173 168 168 168 164 161 176 196 201 196 193 191 187 185 187 189 192 195 199 205 214 219 216 215 212 218 221 226 233 249
48 51 97 111 162 316 101 267 259 231 254 255 254 247 261 263 170 181 206 237 266 246 250 239 158 193 282 344 259 275 242 222 220 223 200 194 192 184 187 189 190 189 189 193 193 193 194 195 193 193 192 192 193 192 188 184 187 185 180 181 179 180 179 176 170 172 179 175 166 165 163 163 175 191 198 194 190 185 179 176 173 174 177 181 186 190 192 189 181 169 160 153 153 150 146 145 143
38 28 147 112 135 269 298 261 248 251 248 249 262 252 259 237 177 192 191 243 251 221 269 216 162 231 280 289 256 276 231 216 212 222 198 189 191 188 190 193 195 192 190 192 193 193 193 196 195 195 195 194 194 191 187 187 190 186 181 184 185 185 182 175 172 181 186 179 169 166 169 179 190 192 190 185 181 174 167 162 159 161 162 167 170 171 168 160 152 146 143 138 133 121 111 98 82
39 354 105 101 91 233 255 247 255 261 266 292 285 258 245 192 155 198 198 264 240 223 280 119 191 235 249 283 255 233 212 204 206 211 189 186 191 191 192 194 197 196 194 192 192 194 194 197 199 198 198 198 196 192 188 188 189 186 185 187 186 184 179 174 182 192 192 187 184 183 186 191 192 186 182 177 172 166 161 156 153 153 153 156 156 154 149 142 140 137 132 122 112 102 89 72 60
100 333 62 110 190 216 222 245 268 275 294 305 278 279 223 146 140 206 205 250 242 243 253 184 200 171 149 282 259 264 255 208 202 202 187 185 191 192 194 195 196 198 198 195 194 195 197 200 201 201 201 199 196 190 186 184 185 184 184 183 180 178 176 181 193 198 196 195 195 194 196 194 190 185 180 175 170 166 161 158 155 152 151 150 147 143 137 133 130 121 110 99 92 85 77 64 56
127 141 87 153 196 195 213 240 278 303 311 261 244 298 111 140 191 212 179 224 230 228 252 212 165 111 200 256 282 305 271 210 193 191 187 186 191 192 194 196 195 197 198 199 199 199 200 202 203 203 202 200 197 191 187 187 186 185 184 182 181 182 185 192 199 199 199 200 199 197 196 192 188 183 179 175 171 168 164 161 158 155 152 149 145 141 137 134 127 117 104 93 86 75 68 55 47
142 148 114 206 243 159 207 252 284 294 288 261 260 294 159 183 214 185 142 230 238 197 244 209 145 98 243 266 307 302 262 199 185 185 185 185 191 192 195 196 196 197 198 201 203 204 203 204 206 206 204 202 200 196 193 193 192 192 192 193 194 195 198 200 201 201 201 200 198 196 194 189 185 181 178 175 171 168 164 162 159 157 153 149 146 141 138 135 128 124 115 105 96 85 76 59 42
146 132 94 150 317 329 219 231 243 172 257 265 273 265 215 253 148 127 188 219 251 218 239 193 158 192 213 202 243 278 288 189 179 181 181 183 188 192 197 198 199 199 200 204 206 209 208 208 208 207 207 204 202 200 198 198 198 199 199 201 202 202 203 203 202 202 201 199 197 194 191 187 183 181 178 175 172 169 165 162 159 156 152 148 145 141 136 133 132 132 130 131 131 133 138 136 143
115 105 71 358 266 291 227 216 185 155 256 248 265 330 246 271 158 149 229 195 273 270 169 205 187 209 188 186 223 295 298 179 175 178 177 181 187 192 199 200 203 202 204 207 208 212 211 211 209 208 208 207 205 202 202 201 201 202 203 204 204 204 204 204 204 202 201 199 197 194 191 187 184 181 177 176 173 170 166 163 160 157 153 149 146 143 140 139 139 140 141 143 144 147 150 154 155
73 84 72 303 224 217 212 205 193 193 262 269 298 320 179 289 293 226 253 149 257 268 247 235 227 232 197 212 276 318 184 171 171 173 173 180 186 191 199 201 204 204 206 208 210 212 212 212 211 210 209 209 207 205 205 204 205 206 205 206 205 205 205 206 206 204 202 199 198 195 191 189 185 182 180 178 175 173 170 167 164 159 156 153 151 148 147 147 147 146 143 141 140 140 138 141 143
64 92 142 249 205 205 193 193 203 195 271 273 303 278 184 270 295 295 339 280 259 266 271 274 281 265 233 260 304 190 166 170 171 171 173 178 184 190 197 202 203 206 207 207 210 212 212 213 213 213 212 210 208 207 207 207 208 208 207 206 205 206 205 206 207 205 203 199 196 193 191 189 186 185 183 182 180 177 175 172 169 165 163 162 159 158 158 156 154 150 145 143 140 138 138 140 143
135 130 183 234 207 216 199 193 208 210 248 266 294 289 189 238 267 35 290 274 288 280 274 285 279 271 261 254 204 170 168 172 175 176 179 182 187 193 197 202 204 208 209 208 210 211 213 214 214 214 213 211 209 208 208 208 210 210 208 206 205 206 206 207 207 205 203 199 195 193 193 191 189 188 186 185 184 181 179 177 174 172 171 169 168 167 163 158 151 146 138 135 134 131 135 140 147
176 145 224 243 218 236 236 213 223 228 245 294 296 288 188 240 249 114 251 280 285 262 253 243 250 257 252 221 161 172 173 178 183 186 190 193 196 197 198 200 204 209 210 211 211 211 212 214 215 215 214 213 211 209 209 209 211 211 210 208 207 207 207 208 208 206 203 199 196 195 194 192 191 191 190 189 188 184 182 180 179 176 174 172 169 165 158 151 140 134 127 122 123 123 129 132 135
173 163 215 236 201 239 247 219 230 246 241 257 279 335 281 258 210 191 233 298 286 261 226 219 230 240 241 211 175 179 179 189 193 197 201 202 204 205 206 205 208 211 211 212 212 212 213 214 215 215 215 214 212 210 209 210 210 211 211 209 209 208 209 208 207 206 203 200 198 197 196 195 195 195 194 192 190 187 184 182 181 179 177 173 167 160 152 145 135 128 123 121 121 121 124 123 122
165 214 227 231 175 231 253 220 228 237 187 221 266 294 277 260 212 209 199 226 267 267 202 209 226 231 236 203 182 184 187 199 199 206 210 209 211 212 214 213 214 214 212 214 214 214 214 214 215 215 215 214 214 212 211 211 211 211 211 210 210 209 209 207 207 206 204 202 199 199 199 197 197 197 196 194 191 189 188 186 183 181 177 170 161 154 146 138 132 127 122 122 118 114 117 113 112
221 249 246 240 210 231 262 235 217 189 184 251 245 268 286 297 279 221 189 215 251 264 193 197 228 230 235 179 166 188 197 204 205 210 210 210 214 215 216 215 215 214 214 216 216 215 214 214 215 215 215 214 214 213 212 212 212 213 212 212 211 209 208 207 207 207 206 203 201 201 201 201 200 199 198 196 193 191 191 188 184 180 173 166 156 148 142 134 129 125 120 115 107 104 101 94 96
231 256 255 246 227 234 256 260 255 241 250 255 261 308 289 256 275 225 205 231 250 264 253 216 240 231 216 170 180 198 201 206 211 213 213 213 216 217 218 217 217 216 216 218 217 216 216 215 215 215 216 215 215 213 213 214 214 214 213 213 213 211 209 209 209 208 207 205 204 204 204 204 202 201 200 197 195 193 191 188 183 177 169 163 155 147 141 134 129 122 113 104 101 101 93 85 83
226 236 246 251 242 243 256 267 268 263 254 250 289 290 261 238 262 302 258 254 257 266 276 253 245 232 209 201 207 206 208 214 219 221 220 221 222 224 224 221 219 219 221 220 218 218 218 217 216 215 216 216 215 214 214 215 216 215 214 214 213 213 212 211 211 209 209 207 206 207 207 206 204 203 201 199 197 194 190 187 181 175 169 162 156 151 145 138 131 123 113 104 100 97 90 79 76
221 225 248 259 266 265 265 267 247 239 244 198 225 269 266 252 247 272 258 256 266 276 279 264 242 237 226 219 218 209 215 219 222 224 225 227 227 229 230 225 221 223 224 221 220 220 219 217 216 217 217 217 215 214 215 216 216 216 215 214 214 214 214 213 212 211 211 210 209 210 209 208 206 205 203 201 199 195 190 185 181 175 170 165 160 154 149 143 136 128 116 102 88 88 89 79 73
198 218 265 255 267 278 249 247 239 218 240 189 194 259 272 297 121 263 260 245 266 293 283 275 243 243 239 229 227 216 220 225 224 224 227 230 226 230 231 224 223 226 224 222 223 221 218 218 218 217 217 216 215 215 216 217 217 217 216 215 214 214 214 213 212 212 212 212 211 211 211 209 208 207 205 203 200 196 191 186 183 177 173 168 163 159 154 149 143 134 118 99 80 79 82 82 70
191 247 298 278 291 294 254 238 241 206 248 199 185 252 281 329 182 248 262 251 256 298 284 283 250 248 249 238 235 223 227 233 228 220 224 227 224 227 228 224 225 226 223 224 224 219 219 220 219 218 216 215 215 215 216 217 218 218 217 216 215 215 214 214 213 213 213 212 212 212 212 210 208 208 207 206 203 198 193 189 186 180 176 172 166 164 160 155 147 136 121 101 81 74 76 80 54
298 45 319 293 333 308 275 261 224 183 221 188 158 260 285 266 237 243 258 262 275 281 278 279 261 250 251 246 242 232 236 238 226 220 227 229 229 228 228 230 228 225 225 226 222 219 221 220 219 217 215 214 215 216 216 217 218 218 217 216 215 215 214 215 214 214 214 213 213 213 213 211 209 208 208 209 206 201 196 193 188 181 178 174 170 167 162 158 148 139 126 110 94 79 78 65 19
289 41 333 295 339 306 282 48 86 171 186 167 144 262 263 250 253 251 257 263 270 269 264 269 268 261 252 245 244 242 243 238 224 227 231 234 236 233 233 236 231 228 228 224 220 222 222 219 218 216 213 214 215 215 215 216 217 217 217 216 215 215 215 216 215 215 215 214 214 215 214 212 210 209 210 210 208 204 199 195 190 184 180 177 174 170 164 159 150 142 132 124 116 109 126 297 316
296 312 278 301 313 281 294 68 100 235 208 159 158 247 255 259 265 261 259 247 242 255 259 260 263 266 261 249 244 249 247 237 234 237 236 237 240 238 237 239 235 231 227 222 223 224 221 217 216 214 213 214 213 213 214 215 216 216 217 216 215 215 216 216 216 215 216 215 214 215 215 214 212 211 211 212 210 206 201 197 192 187 184 179 176 172 166 162 155 149 144 139 140 157 227 282 315
12 281 277 304 209 270 303 309 197 234 272 129 161 238 254 261 268 270 268 225 215 240 257 259 260 261 262 260 252 252 254 246 243 244 242 240 241 240 238 239 236 231 227 225 225 222 218 217 216 214 213 213 213 213 213 213 214 215 216 215 215 215 216 217 216 216 216 215 215 215 216 215 214 213 212 212 212 209 203 199 194 189 186 182 178 174 168 165 159 158 158 155 162 184 257 302 325
342 222 248 264 242 265 307 301 235 215 245 169 204 230 255 259 265 274 267 219 216 237 257 260 261 262 260 264 261 258 263 260 252 246 243 242 242 240 238 238 236 232 230 226 223 219 217 217 215 214 214 213 212 211 211 211 212 214 215 215 215 216 217 218 217 216 216 215 215 215 217 216 215 215 213 213 213 211 205 200 195 190 188 184 180 175 171 167 164 167 167 161 170 192 240 300 325
291 227 231 245 249 254 287 294 293 215 188 209 229 237 247 255 265 283 283 250 234 243 260 261 259 264 264 264 266 265 266 266 262 248 241 243 244 242 239 238 237 233 232 227 222 220 219 216 214 214 214 213 210 208 208 208 210 212 213 214 214 215 217 218 218 217 217 216 216 217 217 217 217 216 215 213 213 212 207 200 196 192 189 186 181 177 174 171 168 170 170 168 174 193 241 308 326
242 233 242 255 242 245 254 264 293 318 244 217 227 248 251 259 269 281 280 271 262 253 255 262 264 265 265 266 265 264 266 266 265 257 245 244 246 245 240 237 235 232 231 228 223 221 219 216 215 214 212 210 208 207 205 205 207 208 209 211 213 215 216 217 218 218 218 218 218 218 218 218 219 217 216 214 213 212 207 201 198 194 191 188 183 180 177 175 173 172 173 171 168 186 293 334 337
235 232 234 248 250 247 246 254 261 278 276 261 252 259 259 262 263 266 272 271 269 266 258 259 265 265 264 263 261 262 264 263 264 265 255 245 245 244 241 236 231 229 229 226 222 218 217 215 213 212 211 208 204 201 199 200 201 202 204 206 208 212 214 216 217 219 220 220 219 219 219 219 219 218 216 215 213 212 208 202 198 196 194 190 188 185 180 178 176 175 175 169 162 161 341 348 345
251 241 240 245 255 261 253 263 265 245 269 265 253 267 270 266 262 258 264 267 266 271 268 261 258 261 262 260 260 262 261 260 266 273 264 246 246 245 240 234 227 224 223 222 218 215 215 213 211 210 208 204 199 197 196 196 196 196 198 201 205 209 211 213 216 218 219 220 220 219 219 220 219 218 216 214 214 212 208 203 199 197 195 193 191 187 182 180 179 180 178 168 162 160 156 356 354
261 243 260 259 248 262 258 259 270 251 233 260 257 272 274 268 267 258 259 262 255 260 267 267 261 256 260 261 263 264 261 264 268 274 267 248 246 246 237 227 217 215 216 216 215 214 214 212 210 209 205 201 200 199 197 197 198 198 198 201 205 207 209 211 213 215 217 218 218 218 219 219 219 218 217 215 215 213 209 204 201 199 197 194 188 185 186 185 183 183 182 173 165 165 166 67 24
244 241 262 263 249 273 267 249 263 253 218 268 269 268 271 271 269 256 247 252 248 248 255 263 265 260 261 259 262 265 266 272 270 269 271 252 236 238 228 219 215 215 215 214 214 214 211 210 210 208 204 201 201 200 199 199 200 201 201 202 203 203 207 210 212 214 214 215 216 218 219 220 219 219 217 217 216 214 211 206 204 201 199 194 188 188 189 188 186 183 184 181 170 163 158 120 68
225 223 245 261 251 266 264 244 266 266 225 270 281 276 274 266 266 256 241 248 249 249 250 256 263 259 257 254 258 268 270 273 272 271 276 256 220 223 218 214 215 214 214 212 211 210 209 209 209 206 204 202 200 200 200 199 198 198 200 202 201 202 205 208 210 213 213 213 215 217 220 220 219 219 217 217 216 215 212 209 206 203 200 196 193 194 193 190 189 187 186 185 177 168 162 139 116
232 216 225 254 247 240 250 265 320 317 278 279 290 292 282 229 239 250 240 247 249 249 252 259 261 255 256 263 267 267 263 265 270 276 278 264 217 216 217 216 215 211 212 212 211 210 209 209 208 205 203 201 199 199 197 195 193 192 192 193 194 197 200 201 203 208 210 212 214 216 218 218 218 218 218 217 216 215 214 211 209 206 201 198 197 198 197 193 190 191 190 187 184 178 171 152 143
258 220 209 239 248 248 257 283 336 339 299 298 316 304 296 196 192 236 249 253 251 246 247 250 254 257 264 274 267 259 256 259 264 270 274 272 245 221 221 218 215 213 216 217 216 213 211 209 207 203 201 199 198 197 194 192 191 189 186 183 183 186 190 196 202 206 208 211 214 215 216 216 217 218 217 218 217 217 215 212 210 207 204 200 199 198 197 195 192 193 190 187 187 182 176 161 153
274 229 204 228 245 254 260 272 306 281 264 300 75 262 287 278 167 215 241 251 254 249 242 245 254 267 272 263 258 260 263 266 266 266 271 274 255 224 226 220 215 219 224 223 218 214 210 207 204 201 199 198 196 194 193 192 191 190 190 190 190 190 192 200 207 209 211 212 212 214 215 215 216 217 217 218 218 218 217 214 211 209 206 203 201 198 196 196 195 194 191 188 187 183 181 171 161
268 235 201 214 230 242 242 233 231 239 274 291 162 161 271 285 229 196 220 239 258 259 253 257 263 265 264 262 263 267 267 266 266 267 271 273 251 222 232 227 223 228 229 223 216 212 209 205 202 199 197 196 194 193 193 193 193 192 194 194 196 197 199 203 207 208 211 211 210 212 214 214 215 216 217 217 217 218 217 214 212 210 208 205 203 200 197 197 196 193 191 189 188 184 185 183 174
254 152 160 187 204 217 177 175 212 260 340 287 214 146 256 283 266 190 220 237 253 264 260 263 265 262 265 270 273 270 267 265 260 259 270 279 268 232 235 236 235 234 229 219 214 211 207 203 199 196 195 195 194 193 193 195 196 195 195 196 198 201 203 205 205 205 207 208 208 210 212 213 214 215 216 217 217 218 217 215 213 211 208 206 205 202 199 198 197 195 193 192 189 185 186 190 189
234 116 105 68 73 85 113 183 194 64 313 262 196 157 211 283 280 123 49 245 243 260 261 260 263 266 272 274 275 275 274 274 271 271 278 284 279 257 248 246 243 235 225 216 210 206 202 199 196 194 194 194 193 194 193 195 196 197 197 198 199 200 201 203 203 201 203 205 205 207 209 211 213 213 214 216 217 218 217 216 214 212 209 207 206 203 200 199 198 198 195 193 190 189 190 192 195
303 77 12 13 16 24 57 247 92 76 282 251 179 178 184 283 287 140 174 235 228 245 261 278 280 281 281 277 273 273 274 280 292 302 296 285 281 276 262 250 243 230 216 208 202 199 196 194 193 192 193 193 193 194 194 195 197 198 200 200 200 200 198 198 197 197 199 201 201 204 207 210 212 213 214 214 216 217 217 216 216 214 211 209 206 204 202 201 200 198 194 193 192 192 196 196 197
13 22 15 357 327 358 27 353 56 156 264 250 183 180 172 237 265 56 279 272 244 230 251 288 291 284 279 278 278 280 288 301 312 314 309 303 293 283 267 246 228 210 201 196 194 192 191 191 190 190 191 192 193 194 195 197 198 200 202 202 202 201 199 198 198 197 198 199 200 202 204 207 210 212 213 214 215 215 216 216 215 214 212 210 208 205 204 203 202 199 195 194 194 193 198 201 201
124 124 79 349 318 341 351 314 81 204 257 254 181 173 187 243 260 319 289 275 260 238 236 264 278 283 285 292 300 304 311 312 307 302 297 294 289 281 275 261 228 205 198 193 190 187 187 188 188 188 190 192 193 194 197 198 200 202 203 203 204 203 203 203 202 201 201 201 201 200 202 204 206 209 211 212 213 213 214 215 214 214 213 211 209 206 204 204 203 201 198 197 196 196 200 204 205
155 156 160 156 192 276 271 262 271 259 268 285 177 172 245 272 274 249 248 262 270 261 254 260 267 282 288 293 299 303 304 302 294 290 288 287 293 291 279 269 249 225 208 195 189 186 185 187 188 190 191 192 193 196 198 200 202 204 204 205 206 205 206 206 206 205 206 205 204 204 206 206 207 209 211 212 213 213 213 215 215 214 213 211 210 207 205 205 203 203 202 200 199 199 201 204 206
183 164 143 157 184 222 241 238 258 268 280 310 246 183 223 267 277 242 240 270 295 296 291 279 269 268 270 277 289 298 305 308 301 295 297 298 298 295 285 268 250 234 214 200 192 188 187 188 191 192 192 193 195 197 199 201 204 205 206 207 208 208 209 209 210 211 211 210 209 209 210 210 212 213 213 213 213 213 214 214 215 215 214 212 210 208 205 204 204 204 204 203 201 200 202 205 205
242 133 110 201 200 195 236 245 242 258 290 288 241 217 223 244 280 278 269 280 289 299 318 321 309 281 269 296 318 319 319 321 319 311 309 306 297 290 289 280 257 234 214 204 197 192 192 192 193 196 197 197 198 200 202 203 205 206 207 209 209 210 211 211 213 214 214 215 214 213 213 215 215 215 214 214 214 214 214 213 214 214 214 212 210 208 207 204 203 204 204 203 201 201 204 205 205
233 112 174 232 170 155 229 265 246 245 263 247 238 258 271 287 289 288 304 309 303 328 331 299 280 279 297 348 338 324 316 314 311 303 297 293 294 293 292 288 270 245 223 211 205 201 199 197 197 199 200 202 203 203 204 205 205 207 209 210 211 211 212 213 214 215 215 216 216 217 217 217 217 216 215 215 214 214 214 214 213 213 213 213 211 209 208 206 204 204 204 203 201 202 204 206 207
141 205 217 227 57 130 187 251 250 236 246 241 231 252 272 293 282 291 346 327 299 282 269 261 271 303 347 348 321 303 296 300 312 311 299 289 288 290 282 276 266 254 242 230 220 213 208 206 203 202 203 205 206 206 207 207 207 209 211 212 213 213 214 215 216 216 216 215 216 218 218 218 217 216 215 214 214 214 214 213 213 212 212 212 211 210 208 207 206 205 205 204 203 203 204 205 207
185 253 247 138 255 254 216 193 209 233 248 250 221 236 253 255 256 272 275 269 268 262 261 286 297 310 329 327 327 328 322 330 343 334 316 300 284 272 259 256 250 242 238 235 231 225 220 216 211 210 210 210 210 210 209 210 211 212 213 214 215 216 216 218 217 217 216 216 217 218 217 218 217 216 214 213 213 213 213 213 212 212 211 211 211 210 209 207 207 206 205 203 203 203 204 205 206
255 301 313 239 228 235 233 208 181 233 251 257 236 227 229 228 244 264 259 246 245 244 249 288 293 294 295 303 324 330 329 330 325 315 309 307 297 283 266 256 250 242 237 232 229 227 225 224 221 218 216 214 214 214 213 214 214 215 216 217 217 218 219 220 219 217 218 218 219 218 218 218 216 215 214 213 212 212 212 212 211 211 211 210 210 210 209 208 207 207 206 204 202 203 204 206 206
196 228 245 246 237 251 268 246 199 239 251 253 249 238 225 218 242 258 256 245 231 224 228 278 289 299 300 288 287 297 306 307 301 298 298 299 299 303 295 273 260 254 249 239 232 228 225 226 225 224 221 217 217 217 217 218 218 217 218 218 219 219 219 220 219 219 220 220 220 220 220 219 216 215 214 212 212 212 212 212 211 211 211 210 210 209 208 208 207 207 206 204 203 202 204 205 205
180 189 210 227 232 255 278 261 232 233 246 248 255 255 238 204 243 258 256 235 221 231 253 280 291 307 311 302 278 271 278 285 286 286 283 284 290 304 308 283 260 251 249 244 238 232 227 226 226 225 224 222 220 219 220 221 220 219 221 221 221 220 219 219 219 219 220 221 221 221 220 218 217 216 215 213 212 211 211 211 211 211 211 210 210 209 208 207 207 206 205 204 203 202 203 204 204
Height
813 814 813 814 813 814 816 817 831 839 840 848 846 843 831 824 826 822 817 814 813 808 806 808 807 806 807 809 808 805 805 808 809 819 820 803 798 800 800 802 802 803 805 807 810 812 813 815 817 818 820 821 821 822 823 823 824 825 826 827 828 829 829 830 830 831 831 832 832 832 833 833 833 834 834 834 834 834 834 834 835 835 835 835 835 836 836 836 836 836 836 836 836 835 835 835 835
813 814 813 814 814 815 821 822 838 848 845 848 844 840 829 824 826 818 813 811 809 807 807 808 808 807 806 806 804 805 804 804 803 805 804 801 802 801 801 802 802 804 805 807 809 811 813 814 816 817 819 820 820 821 821 822 823 824 825 826 827 828 829 829 830 830 831 831 831 832 832 832 833 833 834 834 834 834 833 834 834 835 835 835 835 836 836 836 836 836 836 835 835 835 834 834 834
813 814 814 814 815 816 823 826 840 852 850 850 839 832 829 823 818 811 809 807 807 809 809 808 808 806 805 806 805 805 804 803 803 803 803 802 801 799 800 801 803 804 805 807 808 810 812 813 815 816 817 819 819 820 821 822 823 823 824 825 826 827 828 829 829 830 830 831 831 831 832 832 832 833 833 833 833 833 832 833 833 834 835 835 835 835 835 835 835 835 835 834 834 834 834 834 834
814 814 814 814 818 820 826 833 842 849 849 852 839 823 822 817 811 809 808 808 809 810 809 809 808 805 805 806 804 804 802 799 799 799 800 798 797 797 798 801 803 804 805 806 808 810 811 813 814 815 817 818 819 820 820 821 822 823 824 825 825 826 827 828 828 829 829 830 830 830 831 831 831 832 832 832 832 831 832 832 833 833 834 834 834 834 835 834 834 834 834 834 834 834 834 834 834
813 814 815 813 821 824 830 842 848 849 841 842 835 817 815 813 808 807 808 809 810 810 809 809 807 804 804 804 803 801 798 796 795 795 796 794 794 796 798 800 802 804 805 806 807 809 811 812 814 815 816 817 818 819 820 821 821 822 823 824 825 826 826 827 828 828 829 829 829 830 830 830 830 830 830 831 830 830 831 831 832 832 833 833 833 834 834 833 833 833 833 834 834 834 833 833 833
814 814 814 813 821 823 832 844 846 845 832 829 827 814 810 809 810 808 807 808 807 809 809 809 806 805 805 801 799 797 794 793 792 792 792 792 793 795 797 799 801 803 804 806 807 809 810 812 813 814 815 816 818 818 819 820 821 822 823 824 824 825 826 827 827 827 828 828 828 829 829 829 829 829 829 829 829 829 830 830 831 832 832 832 833 833 833 833 833 833 833 833 833 833 833 833 833
813 815 817 818 823 826 836 842 841 840 827 825 823 811 807 806 810 810 809 808 807 807 808 808 806 806 804 800 797 793 791 791 790 791 791 791 791 793 796 798 800 802 804 806 807 808 810 811 812 813 815 815 817 817 818 819 820 821 822 823 824 824 825 826 826 827 827 827 828 828 828 828 829 829 828 828 828 828 829 829 830 830 831 832 832 832 833 833 832 833 833 833 833 833 832 832 832
813 817 821 823 830 834 841 842 839 840 828 823 820 811 806 805 811 811 809 809 807 807 807 806 806 807 803 800 798 792 790 790 790 790 790 791 791 792 794 796 798 800 803 804 806 808 809 810 812 813 814 815 816 816 817 818 819 820 821 822 823 823 824 825 825 826 826 826 827 827 828 828 828 828 828 828 828 828 828 829 829 830 830 831 831 832 832 832 832 832 832 832 832 832 832 832 832
814 817 823 826 834 839 842 842 838 837 828 821 817 810 806 806 810 809 808 809 808 806 805 805 805 806 802 800 797 791 790 789 790 790 790 791 791 792 793 795 796 798 801 803 805 806 808 809 810 811 813 814 814 815 816 818 818 819 821 821 822 822 823 824 824 825 825 826 826 827 827 827 827 827 827 827 827 828 828 828 829 829 830 830 831 831 831 832 832 832 832 832 831 831 831 831 831
817 819 825 830 836 841 842 840 835 830 823 818 814 808 805 806 809 809 808 807 806 806 804 805 805 804 802 800 795 790 789 788 789 789 789 791 791 792 793 795 796 797 799 801 803 805 807 808 809 810 811 813 814 815 816 817 818 819 820 820 821 821 822 823 823 824 824 825 825 826 826 826 827 827 827 827 827 827 827 828 828 828 829 830 830 831 831 831 832 832 832 832 831 831 831 831 830
821 823 826 833 839 840 838 835 829 824 820 819 813 804 803 805 807 809 809 806 805 805 803 805 804 802 802 799 792 787 787 787 788 788 789 790 792 793 793 795 797 798 799 801 803 804 806 807 808 809 810 811 812 813 815 816 817 818 819 819 820 821 822 822 822 822 823 824 824 825 825 826 826 826 827 827 827 827 827 827 828 828 829 829 830 830 831 831 831 832 832 831 831 831 831 831 830
824 829 829 836 840 837 836 835 828 824 821 819 809 799 803 806 806 804 805 805 803 804 803 802 799 798 802 799 790 786 786 786 787 788 789 790 792 793 794 795 797 799 800 801 802 803 805 806 807 808 809 810 811 812 813 814 815 817 817 818 819 819 820 820 821 821 822 822 823 823 824 825 825 826 826 826 827 827 827 827 828 828 829 829 830 830 831 831 831 832 832 831 831 831 831 831 831
825 831 831 835 842 840 839 836 830 828 820 812 805 801 805 804 802 800 801 803 803 804 800 796 796 796 799 795 788 786 785 784 786 788 789 790 792 793 794 795 797 799 800 801 802 803 804 805 806 807 808 809 810 811 812 813 814 815 816 816 817 817 818 819 819 820 821 821 822 822 823 824 824 825 825 826 826 826 827 828 828 829 829 830 830 831 831 832 832 832 832 832 831 831 831 831 831
823 829 830 835 845 843 838 833 827 828 818 805 804 804 805 802 799 799 801 803 801 800 795 792 795 797 797 793 788 784 783 783 785 787 788 790 791 793 794 795 797 798 800 801 801 802 803 804 805 806 807 808 809 810 811 812 812 813 814 815 816 816 817 818 818 819 820 820 821 821 822 823 823 824 825 825 826 826 827 828 829 829 830 831 831 832 832 832 832 832 832 832 832 831 831 831 831
823 827 830 834 843 841 836 832 826 828 818 804 805 805 804 801 798 800 800 800 797 795 794 793 794 795 795 791 787 783 782 783 784 786 788 790 791 793 794 795 797 798 799 799 801 801 802 802 803 805 805 806 807 808 809 810 811 812 813 814 815 816 816 817 818 818 819 820 820 821 821 822 823 823 824 825 825 826 827 827 828 829 830 831 831 832 832 833 833 833 833 833 833 832 832 832 832
823 826 833 836 841 841 835 832 830 829 816 804 806 806 803 799 798 799 796 797 795 793 794 792 791 791 789 787 785 783 783 783 784 786 788 790 791 793 794 796 796 797 798 798 799 799 800 801 801 803 804 805 805 806 808 809 810 811 812 813 814 815 816 816 817 818 818 819 819 820 821 822 822 823 824 824 825 826 826 827 828 829 830 831 831 832 833 833 833 833 833 833 833 833 833 832 832
822 825 836 838 841 840 831 828 827 821 810 803 804 804 803 799 798 798 796 797 795 793 793 791 789 787 785 784 783 783 783 783 785 786 788 789 790 792 793 794 795 795 796 796 796 797 798 799 799 800 801 803 804 805 806 807 809 809 810 812 813 814 815 816 816 817 817 818 819 820 821 821 822 823 823 824 825 825 826 827 827 829 829 830 831 832 832 833 833 833 833 833 833 833 833 833 832
823 831 838 837 838 833 822 818 816 812 807 803 801 802 804 801 798 797 796 796 794 794 792 790 788 785 784 783 783 783 783 784 785 786 787 788 789 790 790 791 791 791 792 793 793 794 795 796 797 798 799 801 802 803 805 806 807 808 809 810 811 812 813 814 815 816 817 817 818 819 821 821 822 823 823 824 824 825 826 826 827 828 829 830 831 831 832 832 833 833 833 833 833 833 833 833 833
825 834 838 833 828 821 813 811 809 808 806 802 802 803 805 801 798 798 797 795 794 793 791 790 788 784 782 783 783 783 783 784 784 784 785 785 785 785 785 787 787 788 788 788 789 790 792 793 795 796 797 799 800 801 803 804 806 806 808 809 810 811 812 813 814 815 816 817 818 819 820 821 822 823 823 824 824 825 825 826 827 828 829 830 830 831 832 832 833 833 833 833 833 833 833 833 833
824 831 834 825 817 814 811 809 807 804 804 803 803 804 805 800 798 799 797 795 793 790 788 789 788 782 778 781 783 783 783 784 783 783 782 781 781 780 781 782 782 781 781 783 785 787 789 790 792 794 795 797 798 799 801 802 804 805 806 807 808 809 810 811 812 814 815 816 817 818 819 820 821 822 823 823 824 825 825 826 827 828 829 829 830 831 831 831 832 832 832 832 832 832 832 832 832
824 826 824 816 815 814 805 804 804 803 806 805 803 805 803 798 799 797 796 798 790 781 781 782 782 777 774 778 781 782 782 782 782 781 780 780 779 779 778 777 777 777 780 783 784 784 785 787 789 791 793 795 796 797 799 800 801 803 804 805 806 807 809 810 811 812 813 814 815 817 818 819 820 821 822 823 824 824 825 826 827 828 828 829 830 830 830 831 831 831 831 831 832 832 832 832 832
821 819 813 810 815 812 799 800 803 802 805 804 804 803 799 796 797 794 795 799 785 771 774 776 773 773 772 775 779 780 781 780 780 779 778 778 776 776 776 776 777 778 780 780 779 780 782 784 786 788 790 792 794 795 797 798 799 800 802 803 804 805 807 808 809 810 812 813 814 815 816 818 819 820 821 822 823 824 825 825 826 827 828 828 829 829 830 830 830 830 830 830 831 830 831 831 831
818 814 810 808 811 808 798 799 801 801 804 802 802 800 797 797 794 791 792 791 775 763 769 772 770 771 770 772 776 777 778 777 776 774 773 773 772 772 772 773 774 775 775 774 776 778 780 782 784 786 787 789 791 793 795 796 797 798 800 801 802 803 805 806 807 808 810 811 812 814 815 816 818 819 820 821 822 823 824 824 825 826 826 827 827 828 828 829 829 829 830 830 830 830 830 830 830
817 814 809 806 806 805 799 799 800 801 802 799 801 799 797 796 793 791 787 781 770 762 767 770 768 769 770 771 772 772 772 772 770 768 767 767 766 766 767 769 770 772 773 772 774 776 777 779 781 782 784 786 788 790 792 793 795 796 798 799 800 801 803 804 805 807 808 810 811 812 814 815 816 818 819 820 821 822 823 823 824 825 825 826 826 827 828 828 829 829 830 829 830 829 829 829 829
817 813 808 805 804 801 797 799 800 800 799 798 800 797 792 791 793 790 781 773 766 763 766 767 767 768 768 768 767 768 769 768 767 765 765 764 764 765 766 767 769 771 769 769 772 772 773 775 778 779 780 782 785 787 789 790 792 794 795 796 798 799 800 802 804 805 807 808 810 811 813 814 815 817 818 819 820 821 822 822 823 823 824 825 825 826 827 827 828 829 829 829 829 829 829 829 828
812 808 806 805 802 798 797 797 798 798 797 797 798 794 787 788 793 784 771 767 762 763 765 764 765 766 765 765 765 766 766 765 764 762 762 761 764 764 762 764 766 764 762 766 768 767 769 773 774 775 777 779 782 784 786 787 789 791 792 793 795 797 798 801 802 804 805 806 808 810 811 813 814 815 817 818 819 820 820 821 821 822 823 824 824 825 826 827 827 828 828 828 829 829 828 828 828
807 807 806 803 802 798 796 795 795 797 795 793 795 791 784 788 794 780 762 761 762 762 763 762 764 763 761 763 762 763 763 760 758 759 760 761 762 759 757 761 760 757 760 762 761 763 767 768 769 771 774 776 779 781 782 784 786 787 789 791 793 795 797 799 800 802 803 805 806 808 809 811 813 814 816 817 818 818 819 820 820 821 822 822 823 824 825 826 826 827 827 827 828 828 828 828 828
806 807 805 800 802 797 792 795 794 795 792 788 791 791 787 790 792 776 757 758 762 762 761 761 763 761 759 760 760 761 759 755 755 758 758 755 753 751 752 753 751 752 755 754 755 760 763 763 765 768 770 773 775 777 779 781 782 785 787 789 791 792 795 796 798 799 801 803 805 806 808 809 811 812 814 815 816 817 818 818 819 820 821 821 822 823 824 825 825 826 826 826 827 827 827 827 827
806 808 807 800 802 796 784 788 791 791 790 785 790 795 790 786 779 764 756 757 761 764 761 759 759 758 757 757 757 757 754 752 754 754 749 746 745 745 746 744 744 747 747 748 753 757 757 758 761 764 767 769 770 772 775 777 779 782 784 786 789 791 793 794 796 798 799 801 803 805 806 807 809 810 812 813 815 816 817 817 818 819 819 820 821 822 823 824 824 825 825 825 826 826 826 827 827
806 808 810 805 808 798 780 784 789 789 789 783 789 796 788 775 765 757 756 759 761 763 760 757 756 754 754 754 753 752 749 749 749 745 741 740 741 741 740 738 740 742 743 748 751 750 750 754 757 759 762 763 765 768 771 774 776 779 781 784 786 788 790 792 794 796 797 799 801 803 804 805 807 808 810 812 813 814 816 816 817 817 818 819 820 821 822 822 823 823 824 825 825 825 825 826 826
808 811 812 814 817 799 779 786 792 788 787 783 786 795 786 768 758 754 755 758 760 760 756 755 753 750 750 749 749 747 744 743 741 737 737 737 737 736 735 734 737 738 740 743 742 743 746 750 752 754 757 759 761 764 766 769 772 775 778 780 783 786 788 790 792 794 796 797 799 801 802 803 805 807 808 810 811 813 814 815 815 816 817 818 819 820 821 821 822 822 823 823 824 824 825 825 825
812 816 815 818 820 805 786 784 787 785 785 786 789 791 785 770 758 752 755 757 758 757 753 751 750 748 746 745 745 743 738 736 735 733 733 733 731 730 730 729 731 733 734 736 736 740 744 745 748 750 752 754 756 759 762 765 768 771 774 777 780 783 785 788 790 792 794 795 797 799 800 802 803 805 807 808 810 811 812 813 814 815 815 816 817 818 819 820 820 821 822 822 823 823 824 824 824
817 820 818 816 817 813 800 783 779 783 784 787 786 783 778 767 756 752 755 756 756 756 751 748 747 744 743 743 741 738 734 731 729 727 726 725 723 723 724 724 725 727 728 730 734 737 739 741 743 745 746 749 751 755 759 762 765 768 771 774 777 780 783 785 787 789 791 793 795 797 798 800 802 803 805 806 808 809 810 812 812 813 814 815 816 817 818 818 819 820 821 821 822 822 823 823 823
818 820 819 816 813 812 806 787 776 781 783 783 784 782 774 762 754 753 753 755 756 756 751 747 745 743 741 740 738 734 730 727 721 717 718 717 716 717 718 719 721 723 725 727 730 732 734 737 739 741 743 746 749 753 756 759 762 766 769 772 775 777 780 782 785 787 789 791 793 795 796 798 800 802 803 804 806 807 809 810 811 812 812 813 814 815 816 817 818 819 820 820 821 821 821 822 822
811 812 813 813 812 810 808 794 779 777 779 781 786 783 773 765 761 758 754 754 756 754 750 745 742 742 739 737 735 728 725 722 712 707 711 712 711 712 713 715 718 720 722 724 727 729 732 734 736 739 742 744 748 751 755 758 761 764 767 770 773 775 778 780 783 784 787 789 790 792 794 796 798 799 801 802 803 805 807 808 809 810 811 812 813 814 815 816 817 818 819 819 819 820 820 820 821
802 805 806 807 808 804 801 792 781 778 779 781 783 776 767 766 764 759 754 752 752 748 746 744 741 738 735 733 728 722 721 716 703 699 705 707 706 707 708 711 714 716 718 721 723 726 727 730 732 735 738 740 744 749 752 755 758 762 764 767 769 771 774 777 779 781 783 785 787 789 791 793 795 797 798 800 801 803 805 806 807 808 809 810 811 812 813 814 816 817 817 818 818 818 819 819 819
802 806 807 807 807 800 793 787 778 779 782 776 772 766 760 760 759 756 751 749 749 743 738 737 736 733 729 726 720 716 714 707 697 696 699 701 701 703 705 707 710 712 714 716 718 719 721 723 726 727 731 735 739 741 744 747 750 754 758 760 762 765 768 771 774 776 778 780 783 785 788 790 792 794 796 797 799 801 803 804 805 806 807 809 810 811 813 814 815 815 816 816 817 817 818 818 818
803 807 808 807 807 798 788 785 776 777 782 772 768 764 757 755 753 750 749 747 746 739 733 729 726 726 722 718 714 709 705 700 696 694 692 696 699 700 702 703 705 707 708 710 711 713 716 718 720 722 726 730 732 733 736 739 741 743 746 749 753 757 761 764 766 769 772 776 779 782 784 787 790 791 794 795 797 799 801 802 803 804 806 807 809 811 812 812 813 814 815 815 816 816 817 817 818
805 808 810 807 805 797 786 783 777 779 782 772 769 764 752 750 746 744 745 740 736 732 728 723 719 720 717 711 707 702 699 696 694 690 687 692 696 696 698 699 700 701 702 705 706 709 712 714 716 719 721 723 726 729 731 733 737 740 744 746 750 754 757 759 763 766 769 773 776 779 782 785 787 789 791 793 795 797 799 800 801 803 804 806 807 808 810 811 812 813 814 814 815 816 817 817 817
805 806 808 804 801 797 787 778 775 780 780 772 770 761 747 747 742 737 737 730 727 727 723 719 716 713 708 703 700 699 698 694 689 686 684 687 692 692 693 694 695 698 699 701 703 705 706 707 709 712 715 718 721 725 728 732 737 742 746 749 752 754 756 760 763 765 768 771 774 776 778 781 784 786 789 791 793 795 797 799 800 801 803 804 806 807 808 810 811 812 813 813 814 815 816 816 817
797 798 803 798 793 792 786 780 779 782 779 772 772 758 733 732 735 729 728 726 725 724 720 717 712 705 700 699 700 700 697 692 688 686 682 683 688 689 689 691 692 694 695 695 696 698 699 701 704 707 711 715 719 722 727 732 736 740 744 748 752 755 757 759 761 763 766 768 770 771 774 777 780 783 786 789 791 793 794 796 798 799 801 803 804 806 807 808 810 811 812 813 813 814 815 816 816
790 791 795 789 784 786 786 786 788 789 782 774 777 764 729 719 729 725 719 722 722 721 721 715 705 698 699 702 699 695 692 689 689 687 681 680 684 687 687 689 690 690 690 691 692 694 696 698 702 705 708 712 716 720 724 728 731 734 737 741 745 749 752 753 754 756 759 761 763 766 770 774 777 780 783 786 788 790 792 794 796 797 799 800 802 804 805 807 808 809 811 812 813 814 815 816 816
792 786 782 781 784 788 786 789 793 790 784 779 781 778 750 725 724 723 716 718 718 715 714 709 702 700 700 698 692 688 688 687 687 686 680 678 681 685 686 686 687 685 685 687 689 691 693 696 699 702 706 709 713 717 721 725 727 730 732 733 735 738 741 743 746 750 753 755 759 763 767 770 774 777 780 783 785 787 789 791 793 795 797 798 799 801 802 804 806 807 809 811 812 814 814 815 816
791 781 777 777 782 786 787 791 794 789 786 784 779 779 773 744 721 717 714 713 715 711 709 706 703 700 694 690 688 686 686 684 684 683 677 675 679 681 682 682 681 680 681 684 686 688 691 693 696 699 703 706 710 713 717 720 723 725 728 730 732 733 735 738 743 747 750 753 757 760 763 767 771 774 777 779 782 784 786 788 790 792 794 796 797 798 800 801 803 804 806 808 810 812 813 814 815
783 781 784 781 782 786 787 788 791 795 791 786 780 779 784 756 718 715 719 716 716 709 705 705 701 698 692 688 687 684 683 681 680 679 675 674 677 679 678 677 676 676 678 681 683 686 689 692 695 698 701 704 706 710 713 716 719 721 724 727 729 732 735 739 742 745 748 751 755 757 761 764 767 770 773 776 779 781 783 785 787 789 791 793 794 796 797 798 800 801 803 805 807 809 810 812 812
781 785 786 785 787 788 791 788 785 794 788 781 783 781 781 754 712 715 726 720 715 704 701 703 699 696 692 688 686 681 680 678 676 677 677 677 677 677 676 675 674 675 676 679 680 684 687 690 693 695 698 701 703 706 709 712 716 719 721 723 726 730 734 738 741 745 748 750 753 755 758 761 764 767 770 773 775 777 780 782 784 786 788 790 791 793 794 795 797 799 800 803 804 806 807 809 810
784 785 781 783 788 786 793 792 785 793 786 774 774 771 775 757 716 713 721 714 711 703 698 700 695 693 689 685 683 680 678 677 676 677 678 678 677 676 675 674 674 675 676 678 679 681 684 687 690 693 696 699 701 704 707 709 712 714 716 719 722 726 730 734 737 741 744 747 750 752 755 758 760 763 766 769 771 774 776 779 781 783 785 786 788 790 791 793 794 796 798 800 801 803 804 805 807
785 786 783 784 787 785 792 794 791 797 784 765 764 764 771 756 719 711 714 709 711 705 699 698 692 689 686 682 681 679 680 681 680 680 678 677 676 675 675 674 674 676 676 677 677 679 681 684 688 691 694 697 699 703 705 707 710 711 714 716 719 722 725 727 730 733 737 740 744 747 750 754 756 759 762 764 766 769 772 775 778 780 782 783 785 786 789 791 792 794 795 797 798 800 801 802 803
787 789 791 795 797 794 794 795 797 796 776 763 767 769 767 744 712 710 709 701 702 702 701 699 692 690 688 686 685 683 684 684 682 681 678 676 675 676 677 677 677 678 678 678 679 679 681 684 687 689 692 695 698 701 704 706 708 710 713 716 718 721 723 724 726 729 731 734 738 741 744 747 750 752 754 757 760 763 767 770 773 776 778 780 782 784 786 788 790 792 793 794 795 797 798 800 801
786 785 787 796 799 799 796 793 796 789 769 765 773 770 759 735 711 705 701 693 693 695 698 698 695 695 693 691 691 687 685 684 682 679 677 677 677 678 679 680 681 682 681 681 681 682 684 685 687 689 691 694 697 699 702 705 707 709 712 714 717 719 721 723 725 727 729 732 734 737 738 741 743 745 747 750 754 759 763 766 769 772 774 777 779 781 783 784 787 789 790 792 793 795 796 798 799
781 775 776 784 782 785 785 779 777 770 759 766 776 767 748 727 709 701 698 696 695 694 696 696 694 693 692 692 690 687 683 681 682 681 679 681 681 681 681 681 682 683 683 683 683 683 685 686 689 690 692 694 695 697 700 702 704 707 710 712 714 716 718 720 723 725 727 729 731 733 735 737 739 741 744 748 751 755 759 762 765 768 771 773 776 777 779 781 783 786 788 790 791 793 794 796 797
777 774 775 776 768 767 770 766 760 760 762 765 765 754 733 716 703 698 700 699 694 693 692 692 691 690 691 688 683 682 680 678 682 681 679 681 681 681 682 682 683 683 683 684 684 684 685 687 689 690 692 693 694 695 696 699 702 704 707 709 711 713 715 717 719 721 723 725 727 729 730 732 735 738 741 745 748 752 755 758 761 764 767 770 772 774 776 777 779 781 784 786 788 790 792 793 795
774 778 772 765 760 759 765 766 757 762 770 757 743 737 727 716 706 696 696 694 689 691 691 691 695 693 688 683 680 680 679 677 679 681 680 680 679 679 680 683 685 685 685 684 684 684 685 686 687 689 691 692 692 694 695 697 700 701 703 704 707 709 710 711 713 715 718 721 724 725 727 729 732 735 738 740 744 748 751 755 757 760 764 766 768 770 772 774 775 777 780 782 785 787 789 791 793
767 771 762 757 760 759 764 771 765 765 768 749 732 730 725 723 715 698 694 692 687 688 691 692 693 689 682 679 679 679 678 676 675 676 679 680 679 679 679 681 684 686 687 687 686 686 685 685 685 686 687 688 689 691 693 694 696 697 698 699 701 703 704 706 708 711 714 717 719 721 724 726 728 731 734 737 741 744 747 751 754 757 760 762 765 767 769 771 772 774 776 779 781 784 786 789 791
761 762 758 759 765 762 761 769 768 763 759 745 733 727 724 723 713 697 693 691 685 684 688 691 689 684 681 680 677 676 675 675 673 672 674 675 676 678 678 680 681 683 684 685 686 687 687 686 685 684 685 686 688 690 691 692 692 693 694 695 697 699 701 703 705 708 710 712 713 716 719 721 723 727 730 733 736 740 743 747 750 753 756 759 762 764 766 768 769 771 773 775 778 780 783 785 788
762 764 762 762 762 760 758 757 755 753 751 743 734 727 719 711 700 693 690 687 683 683 685 688 686 681 682 682 678 676 676 677 677 676 675 673 675 677 678 679 679 680 681 682 683 684 685 687 686 685 684 685 687 689 689 690 689 690 691 693 695 697 699 701 704 706 707 708 710 713 715 717 720 723 726 729 732 735 739 742 746 749 752 755 758 761 763 765 766 768 769 771 773 776 778 781 784
760 763 765 763 759 757 756 752 745 744 744 739 734 727 714 699 690 685 683 681 681 681 684 686 682 679 681 682 680 678 678 678 679 679 677 676 677 678 678 679 679 680 680 680 681 681 682 683 684 684 684 684 684 685 686 686 686 686 687 688 689 691 695 698 701 704 704 706 709 711 713 715 717 719 722 725 728 731 735 738 742 745 748 751 754 756 759 761 763 765 766 768 769 772 774 777 780
752 756 758 758 756 757 761 755 741 736 737 732 728 725 710 693 684 677 676 681 681 681 685 683 679 679 680 680 680 679 678 679 678 679 678 677 677 678 679 679 679 679 679 679 680 680 679 678 679 681 682 680 679 679 679 680 681 683 682 683 684 687 690 693 696 698 700 702 704 706 709 712 713 715 718 720 723 727 731 735 738 742 745 748 750 753 755 758 759 761 762 764 766 768 770 773 775